Flag for Germany Weather past 2 weeks in Cuxhaven, Lower Saxony, Germany

Now
55 °F

Fog.


Feels Like: 55 °F
Forecast: 42 / 59 °F
Wind: 3 mph from Southeast

Location: Nordholz


UV Index: 3 (Moderate)

Visibility: 2 mi


Pressure: 30.09 "Hg

Humidity: 94%

Dew point: 54 °F

Location of CuxhavenLocation

Historic Weather in Cuxhaven

°F

Cuxhaven temperature yesterday

Maximum temperature yesterday: 66 °F (at 3:20 PM)
Minimum temperature yesterday: 45 °F (at 4:53 AM)
Average temperature yesterday: 55 °F

Past Weeks' High & Low Weather Summary

 TemperatureHumidityPressure
High68 °F (Apr 20, 2:20 PM)100% (Apr 9, 5:20 PM)30.48 "Hg (Apr 9, 5:20 PM)
Low32 °F (Apr 16, 6:20 AM)41% (Apr 16, 2:20 PM)29.71 "Hg (Apr 8, 9:20 AM)
Average49 °F80%30.02 "Hg
* Reported Apr 8 9:20 AM — Apr 23 9:20 AM, Cuxhaven, Weather by CustomWeather, © 2014

Note: Actual official high and low records may vary slightly from our data, if they occured in-between our weather recording intervals... More about our weather records

Advertising

Historic Weather Conditions — Data for Previous 24 hours

 ConditionsComfort  
Time TempWeatherWind HumidityBarometerVisibility
9:20 AM
Apr 23
55 °FFog.3 mph94%30.09 "Hg2 mi
8:20 AM52 °FFog.7 mph100%30.09 "Hg1 mi
7:20 AM52 °FFog.5 mph94%30.09 "Hg1 mi
6:20 AM52 °FFog.6 mph94%30.07 "Hg1 mi
5:20 AM52 °FFog.5 mph94%30.07 "Hg2 mi
4:20 AM52 °FPartly cloudy.1 mph94%30.04 "Hg6 mi
3:20 AM52 °FPassing clouds.5 mph94%30.04 "HgN/A
2:20 AM54 °FPartly cloudy.2 mph94%30.04 "Hg6 mi
1:20 AM52 °FPassing clouds.6 mph94%30.01 "Hg6 mi
12:20 AM54 °FPassing clouds.6 mph94%30.01 "HgN/A
11:45 PM
Apr 22
54 °FPassing clouds.5 mph94%30.01 "HgN/A
11:20 PM54 °FPassing clouds.6 mph94%29.98 "HgN/A
10:20 PM55 °FPartly cloudy.7 mph88%29.98 "HgN/A
9:20 PM59 °FScattered showers. Broken clouds.6 mph72%29.98 "HgN/A
8:20 PM61 °FPartly sunny.7 mph72%29.95 "Hg6 mi
7:20 PM66 °FScattered clouds.5 mph60%29.92 "HgN/A
6:20 PM66 °FPartly sunny.6 mph60%29.89 "HgN/A
5:20 PM66 °FPassing clouds.7 mph60%29.89 "HgN/A
4:20 PM66 °FScattered clouds.5 mph52%29.89 "HgN/A
3:20 PM66 °FPartly sunny.8 mph52%29.89 "HgN/A
2:20 PM64 °FScattered clouds.10 mph56%29.86 "HgN/A
1:20 PM63 °FPassing clouds.7 mph68%29.86 "HgN/A
12:20 PM63 °FPassing clouds.9 mph68%29.86 "HgN/A
11:20 AM59 °FPassing clouds.9 mph77%29.86 "HgN/A
10:20 AM55 °FScattered clouds.8 mph82%29.83 "Hg5 mi
Weather by CustomWeather, © 2014

See weather overview